Lid_Strength_Index
8 8 7 7 7 6 7 8 7 7 6 6 6 6 5 3 3 3 3 4 3 2
7 7 7 6 6 6 5 7 7 7 6 6 5 6 6 6 3 3 3 4 4 2
7 7 6 5 5 4 5 6 8 8 7 7 6 6 6 6 6 3 3 3 4 4
7 6 5 4 3 3 3 4 7 9 8 8 6 6 6 6 6 3 3 3 3 3
6 6 4 4 4 4 5 4 5 9 8 7 7 6 6 6 6 3 3 4 3 4
6 5 4 5 5 5 5 5 4 8 10 9 9 7 8 10 7 3 3 3 4 4
6 6 5 5 5 6 6 6 5 6 8 10 8 11 12 12 12 13 13 13 12 10
6 6 6 7 7 7 7 6 7 8 9 9 10 12 13 14 14 15 16 16 15 15
7 7 8 8 8 7 7 8 9 10 11 12 12 12 13 14 15 16 16 17 16 16
8 9 9 8 8 9 10 10 12 13 13 14 14 13 14 15 16 16 17 16 16 17
9 9 9 8 9 11 11 12 12 13 13 14 14 13 14 15 17 17 17 17 17 17
9 9 9 10 11 11 12 13 13 13 14 14 15 14 14 16 18 19 19 18 18 18
11 10 10 11 12 12 12 14 14 15 15 15 15 14 14 16 17 19 19 19 18 18
12 11 11 12 12 13 13 14 15 15 15 15 15 14 14 15 17 18 17 18 18 17